Location: Three Guys Observatory
(38.6418°N, 87.1521°W)
Time: 00:26:08
(UTC-04:00)

ISS - Visible Passes

Search period start: 24 September 2014 00:00
Search period end: 04 October 2014 00:00
Orbit: 413 x 416 km, 51.6° (Epoch: 23 September)

Date Brightness Start Highest point End Pass type
(mag) Time Alt. Az. Time Alt. Az. Time Alt. Az.
24 Sep -0.4 06:28:19 10° N 06:29:24 11° NNE 06:30:28 10° NNE visible
26 Sep -0.7 06:26:21 10° NNW 06:28:39 17° NNE 06:30:56 10° ENE visible
27 Sep -0.5 05:38:39 12° N 05:39:25 13° NNE 05:41:06 10° NE visible
28 Sep -1.7 06:24:50 12° NNW 06:27:37 32° NNE 06:30:39 10° E visible
29 Sep -1.1 05:38:15 22° NNE 05:38:27 22° NNE 05:41:07 10° E visible
29 Sep -3.0 07:12:05 10° WNW 07:15:18 49° SW 07:18:31 10° SSE visible
30 Sep -3.3 06:24:41 28° NW 06:26:17 87° NE 06:29:36 10° SE visible
01 Oct -1.5 05:38:23 31° E 05:38:23 31° E 05:40:24 10° ESE visible
01 Oct -1.5 07:11:25 10° W 07:13:36 16° SW 07:15:46 10° S visible
02 Oct -2.2 06:25:09 28° SSW 06:25:09 28° SSW 06:27:35 10° SSE visible
